MESAT1

Last updated on Mon Sep 15 2025 00:03:09 GMT+0000 (Coordinated Universal Time)

1 60209U 24125G 25256.56291187 .00018011 00000+0 45728-3 0 9999 2 60209 97.2679 107.2688 0018203 147.3270 212.9106 15.39540189 66704
UTC large
Height (km)
Speed (km/s)
/
Latitude / Longitude
Inclination (degrees)
Orbital Period (minutes)
Azimuth
Elevation
Range (km)
Doppler Factor

Next 0 passes for location: London (51.5072 / 0.1276)

Sorry there are no passes over London.